Погода в Дальнем Куте

Россия / Приморский край     45°51′10″N   135°16′31″E
темп.,
°C
ветер,
м/с
пор.,
м/с
влажн.,
%
обл.,
%
осадки,
мм/ч
давл.,
гПа
погр.,
м
12 апреля, пн
пн1201:00+5юв227858 0.0 102243
04:00+4юв2280100 0.0 102230
07:00+5ююв1175100 0.0 102229
10:00+14ююз3847100 0.0 10191001
13:00+17юз51332100 0.0 10162582
16:00+17юз51137100 0.0 10142392
19:00+13ююз41141100 0.0 10131105
22:00+10ю3544100 0.0 1012124
13 апреля, вт
вт1301:00+6юв2364100 0.0 101053
04:00+6юв2361100 0.0 100793
07:00+4юв3679100 0.4 1005403
10:00+3юв2395100 3.6 1002326
13:00−1зсз41194100 4.6 1003652
16:00−1зсз71088100 6.6 10051080
19:00−1сз5125962 0.5 10061778
22:00−3сз5116463 0.5 1007972
14 апреля, ср
ср1401:00−5з511685 0.0 1008836
04:00−6з5117213 0.0 10091073
07:00−6з511725 0.0 10101061
10:00−2з61149100 0.1 10102393
13:000з61246100 0.1 10092516
16:00+1з71167100 0.7 10091707
19:000з497389 0.6 10101029
22:00−2зюз1397100 2.3 1012184
15 апреля, чт
чт1501:00−4ююв119895 0.2 101212
04:00−6ю119754 0.2 101419
07:00−5ю118847 0.0 101523
10:00+4з145057 0.0 1015943
13:00+10сз26330 0.0 10131691
16:00+11з46355 0.0 10121886
19:00+7юв1160100 0.0 101210
22:00+3юв2272100 0.0 101423
16 апреля, пт
пт1601:00+2юв227589 0.0 101425
04:000юв2282100 0.0 101339
07:00+1юв2480100 0.0 1013102
10:00+7юв51454100 0.0 10121366
13:00+8ююв71747100 0.0 10101436
16:00+10ююв7164986 0.0 10081841
19:00+6юв4107299 0.1 10091065
22:00+3юв249298 1.4 1013101